Location: Chisholm
(54.9102°N, 114.1701°W)
Time: 11:37:53
(UTC+00:00)

N. Korean satellite - Pass Details

Date: 08 December 2021
Orbit: 447 x 491 km, 97.3° (Epoch: 25 January)

Event Time Altitude Azimuth Distance (km) Brightness Sun altitude
Rises 12:18:51 0° 22° (NNE) 2,469 10.4 -28.4°
Reaches altitude 10° 12:21:08 10° 36° (NE) 1,589 9.6 -28.1°
Maximum altitude 12:24:02 25° 95° (E) 937 8.6 -27.7°
Drops below altitude 10° 12:26:54 10° 153° (SSE) 1,576 9.5 -27.2°
Sets 12:29:09 0° 167° (SSE) 2,445 10.3 -26.9°
